Home > Weather > Glennallen > Past weeks

Flag for USA Past Weather in Glennallen, Alaska, USA — Yesterday and Last 2 Weeks

Now
66 °F

Sunny.


Feels Like: 66 °F
Forecast: 49 / 69 °F
Wind: 14 mph from Southeast

Location: Gulkana Airport

Current Time: Jul 30, 2016 at 2:44:40 PM

Latest Report: Jul 30, 2016 at 1:53 PM


Visibility: 10 mi

Pressure: 30.01 "Hg

Humidity: 47%

Dew Point: 45 °F

Location of GlennallenLocation

Past Weather in Glennallen — Graph

°F

Glennallen Temperature Yesterday

Maximum temperature yesterday: 68 °F (at 2:53 PM)
Minimum temperature yesterday: 52 °F (at 4:53 AM)
Average temperature yesterday: 60 °F

High & Low Weather Summary for the Past Weeks

 TemperatureHumidityPressure
High79 °F (Jul 15, 2:53 PM)100% (Jul 16, 12:53 AM)30.25 "Hg (Jul 16, 12:53 AM)
Low49 °F (Jul 18, 4:53 AM)32% (Jul 20, 2:53 PM)29.51 "Hg (Jul 23, 4:53 PM)
Average59 °F74%29.93 "Hg
* Reported Jul 15 12:53 PM — Jul 30 12:53 PM, Glennallen, Weather by CustomWeather, © 2016

Note: Actual official high and low records may vary slightly from our data, if they occured in-between our weather recording intervals... More about our weather records

Advertising

Glennallen Weather History for the Previous 24 Hours

Scroll right to see more
 ConditionsComfort  
Time TempWeatherWind HumidityBarometerVisibility
12:53 PM
Sat, Jul 30
64 °FSunny.14 mph50%30.02 "Hg10 mi
11:53 AM63 °FSunny.10 mph54%30.03 "Hg10 mi
10:53 AM61 °FPassing clouds.16 mph58%30.04 "Hg10 mi
9:53 AM58 °FScattered clouds.12 mph70%30.05 "Hg10 mi
8:53 AM56 °FPassing clouds.12 mph75%30.06 "Hg10 mi
7:53 AM54 °FSunny.13 mph77%30.06 "Hg10 mi
6:53 AM51 °FSunny.10 mph86%30.06 "Hg10 mi
5:53 AM51 °FOvercast.6 mph86%30.06 "Hg10 mi
4:53 AM50 °FPassing clouds.5 mph86%30.06 "Hg10 mi
3:53 AM52 °FMostly cloudy.3 mph80%30.06 "Hg10 mi
2:53 AM51 °FClear.7 mph83%30.06 "Hg10 mi
1:53 AM53 °FClear.8 mph74%30.06 "Hg10 mi
12:53 AM56 °FPassing clouds.8 mph67%30.06 "Hg10 mi
11:53 PM
Fri, Jul 29
58 °FMostly cloudy.3 mph65%30.06 "Hg10 mi
10:53 PM59 °FOvercast.3 mph64%30.06 "Hg10 mi
9:53 PM61 °FOvercast.6 mph56%30.05 "Hg10 mi
8:53 PM63 °FOvercast.3 mph54%30.04 "Hg10 mi
7:53 PM64 °FOvercast.No wind56%30.04 "Hg10 mi
6:53 PM67 °FOvercast.8 mph45%30.04 "Hg10 mi
5:53 PM67 °FMostly cloudy.12 mph47%30.03 "Hg10 mi
4:53 PM67 °FMore clouds than sun.9 mph47%30.03 "Hg10 mi
3:53 PM67 °FOvercast.13 mph45%30.03 "Hg10 mi
2:53 PM68 °FOvercast.9 mph45%30.03 "Hg10 mi
Weather by CustomWeather, © 2016

See weather overviewHow to use our weather pages